Flight Information

DEPARTURE
CAMARILLO, CA
Elevation:
76
Runways:
8/26 - 6013x150 - ASPH-CONC-G
Active PE Departure:
26
Current PE ATIS:
D
Altimeter:
29.81
Remarks:
ATIS:
126.025 805-484-3351
Clearance Delivery:
121.8
Ground:
121.8
Tower:
128.2
DESTINATION
,
Elevation:
TPA:
1000 (est.)


6822.3 NM73° True-14° Var58° HDG

Flight Plan:
(click to file on line)

1. Type
2. Aircraft Identification
3. Aircraft Type / Special Equipment
4. True Airspeed
kts
5. Departure Airport
(ICAO code)
6. Arriving Airport
(ICAO code)
7. Cruising Altitude
ft
8. Alternate Airport
(ICAO code)
9. Route of Flight
10. Remarks


00:00:00 Departure ATIS: Destination ATIS:

Clearance Limit:
Route:
Altitude: Expect in minutes
Frequency:
Transponder: (7500 Hijack / 7600 Lost Comms / 7700 Emergency)


KCMA 110255Z 00000KT 7SM CLR 15/09 A2981 RMK AO2 SLP103 T01500094 56002
Time: 2021-04-11T02:55:00Z
1618113426
Winds: calm
Visibility: 7.0 sm
Clouds (AGL): CLR
Temperature: 15.0 C
Dew Point: 9.4 C
Pressure: 29.811024 in Hgbr


Notes:

Data extracted from FAA Digital Chart Supplement. Effective: 0901Z Thursday, Feb 25, 2021 to 0901Z Thursday, APR 22, 2021
Current ATIS data is provided courtisy of PilotEdge.